カタログに戻る

COSMOS 2251 DEB

運用中VLEO
NORAD 34752·DEBRIS·🇷🇺 Russia

打ち上げ Jun 16, 1993 から Plesetsk Cosmodrome

Loading…

次のパス (今後24時間)

TLE

最新Source: Space-Track

元期: Sep 14, 2026, 09:37 UTC

1 34752U 93036ZW  26257.40097197  .00007895  00000-0  52031-3 0  9994
2 34752  74.0107 156.1742 0046596 212.5768 147.2546 15.06742910939936

AllMySatでCOSMOS 2251 DEBをリアルタイム追跡

Download on the App Store